Tracking 17884 objects as of 2-December-2016
HD Live streaming from Space Station
objects crossing your sky now

IABS R/B

Track IABS R/B now!


NORAD ID: 26054
Int'l Code: 2000-001C
Perigee: 35,447.2 km
Apogee: 35,632.9 km
Inclination: 12.7 °
Period: 1,423.2 minutes
Semi major axis: 41911 km
RCS: Unknown
Launch date: January 21, 2000
Source: United States (US)
Launch site: AIR FORCE EASTERN TEST RANGE (AFETR)

Note: This is a ROCKET BODY
Your satellite tracking list
Your tracking list is empty





NASA's NSSDC Master Catalog

Two Line Element Set (TLE):
1 26054U 00001C   16121.76365993 0.00000000  00000-0  00000-0 0    00
2 26054  12.6529  31.6898 0022150 248.9826 110.7924  1.01183607    09
Source of the keplerian elements: McCants